Location: D�rrnwasserlos
(50.0248°N, 11.0654°E)
Time: 02:15:56
(UTC+00:00)

Daily predictions for brighter satellites

Satellite Brightness Start Highest point End
(mag) Time Altitude Azimuth Time Altitude Azimuth Time Altitude Azimuth
Cosmos 1980 Rocket 4.4 02:37:21 21° NE 02:37:21 21° NE 02:39:19 10° NE
ATLAS 3B R/B 4.0 02:39:15 34° E 02:39:15 34° E 02:43:08 10° ESE
CENTAUR R/B 3.5 02:54:38 57° SE 02:54:38 57° SE 03:01:20 10° SE
USA 215 3.8 03:00:01 10° E 03:05:38 50° NNE 03:05:38 50° NNE
Cosmos 2263 Rocket 4.0 03:27:15 21° SSE 03:27:15 21° SSE 03:29:03 10° SSE
Cosmos 2322 Rocket 3.8 03:25:48 23° SSE 03:28:15 32° ESE 03:33:14 10° NE
Cosmos 1844 Rocket 4.2 03:31:05 24° N 03:33:11 31° NE 03:38:11 10° ESE
COSMOS 2455 3.3 03:35:52 53° NNE 03:35:52 53° NNE 03:40:27 10° NE
ATLAS 2AS CENTAUR R/B 3.1 03:35:15 62° SSW 03:36:42 77° SE 03:44:40 10° NE
CZ-2C R/B 3.7 03:31:56 10° NNE 03:35:01 37° NNE 03:35:01 37° NNE
USA 32 4.2 03:49:12 10° N 03:54:28 70° E 03:59:42 10° SSE
SKYMED 2 4.2 03:56:04 10° SSE 04:00:10 54° ENE 04:00:10 54° ENE
Cosmos 1680 Rocket 3.4 04:05:19 80° S 04:05:36 84° ESE 04:10:57 10° NNE
Cosmos 1371 Rocket 4.0 04:10:54 70° SSW 04:10:54 70° SSW 04:15:44 10° SSE
SL-8 Rocket 3.8 04:05:03 10° N 04:11:17 87° W 04:17:26 10° S
Cosmos 2360 Rocket 3.7 04:06:31 10° S 04:11:38 36° ESE 04:16:45 10° NE
Lacrosse 5 rocket 2.3 04:11:52 44° NNE 04:11:52 44° NNE 04:16:08 10° E
STARLINK-54 4.5 04:12:58 44° NE 04:12:58 44° NE 04:15:56 10° ENE
SL-16 R/B 2.3 04:10:21 40° SSW 04:12:28 75° ESE 04:18:09 10° NNE
Cosmos 2344 3.7 04:11:26 49° WNW 04:13:03 57° NW 04:21:42 10° NE
STARLINK-77 4.4 04:14:25 46° NE 04:14:25 46° NE 04:17:26 10° ENE
STARLINK-25 4.3 04:16:00 47° NE 04:16:00 47° NE 04:19:06 10° ENE
STARLINK 1035 4.5 04:16:17 41° E 04:16:17 41° E 04:18:48 10° ENE
STARLINK 1060 4.2 04:16:50 51° E 04:16:50 51° E 04:19:52 10° ENE
STARLINK-71 4.3 04:17:48 48° NE 04:17:48 48° NE 04:20:58 10° ENE
H-2A R/B 4.4 04:13:38 10° NNE 04:14:52 20° N 04:14:52 20° N
Cosmos 1980 Rocket 3.0 04:19:08 36° NNW 04:19:08 36° NNW 04:23:23 10° NNE
STARLINK-79 4.2 04:19:09 50° NE 04:19:09 50° NE 04:22:23 10° ENE
STARLINK 1030 4.0 04:20:34 57° E 04:20:34 57° E 04:23:45 10° ENE
Lacrosse 5 2.0 04:19:07 58° SSW 04:19:58 70° SE 04:25:03 10° ENE
STARLINK-78 4.2 04:20:47 51° NE 04:20:47 51° NE 04:24:05 10° ENE
STARLINK 1027 4.2 04:21:02 47° ENE 04:21:02 47° ENE 04:23:45 10° ENE
STARLINK-57 4.1 04:22:29 52° NNE 04:22:29 52° NNE 04:25:51 10° ENE
Cosmos 1697 Rocket 4.1 04:24:00 23° NNW 04:24:00 23° NNW 04:27:15 10° NNE
STARLINK-49 4.0 04:23:57 53° NNE 04:23:57 53° NNE 04:27:22 10° ENE
STARLINK 1020 3.8 04:24:19 63° E 04:24:19 63° E 04:27:40 10° ENE
STARLINK-27 4.0 04:25:32 54° NNE 04:25:32 54° NNE 04:29:02 10° ENE
Cosmos 2112 Rocket 3.9 04:23:44 51° SW 04:25:07 80° WNW 04:30:30 10° NNE
Meteor 2-10 3.9 04:23:56 51° SW 04:25:14 72° WNW 04:30:28 10° N
ADEOS Rocket 4.1 04:20:23 10° SE 04:25:33 40° ENE 04:31:06 10° N
STARLINK-74 3.9 04:27:07 55° NNE 04:27:07 55° NNE 04:30:41 10° ENE
PSLV R/B 4.1 04:23:06 10° NNE 04:26:50 60° ESE 04:28:26 30° S
ATLAS 3B R/B 2.8 04:26:33 46° WSW 04:27:06 47° WSW 04:33:38 10° S
Cosmos 1844 4.3 04:23:13 19° NNW 04:27:08 54° NE 04:32:35 10° SE
STARLINK 1034 3.6 04:28:04 70° E 04:28:04 70° E 04:31:35 10° ENE
STARLINK-39 3.9 04:28:43 56° NNE 04:28:43 56° NNE 04:32:20 10° ENE
Cosmos 2181 Rocket 3.9 04:23:11 10° SSW 04:29:28 79° W 04:35:53 10° N
STARLINK 3.8 04:30:19 57° NNE 04:30:19 57° NNE 04:34:02 10° ENE
Gbstr 26 Del rocket 4.3 04:27:22 39° WSW 04:30:20 81° SSE 04:38:21 10° ENE
STARLINK-43 3.6 04:31:00 68° E 04:31:00 68° E 04:34:18 10° ESE
STARLINK-69 3.8 04:32:06 57° N 04:32:06 57° N 04:35:53 10° ENE
STARLINK-21 3.8 04:33:32 58° N 04:33:32 58° N 04:37:22 10° ENE
Cosmos 2228 4.3 04:35:39 28° NNW 04:35:39 28° NNW 04:37:51 10° N
STARLINK-45 3.8 04:35:19 57° N 04:35:19 57° N 04:39:14 10° ENE
METEOR-M 4.5 04:29:54 10° NNE 04:35:15 66° ESE 04:40:34 10° S
STARLINK 1033 3.3 04:35:38 86° ENE 04:35:38 86° ENE 04:39:28 10° ENE
Meteor 1-16 Rocket 4.2 04:33:05 23° SSW 04:36:42 61° WNW 04:42:24 10° N
STARLINK-70 3.7 04:36:49 57° N 04:36:49 57° N 04:40:48 10° ENE
Cosmos 1624 Rocket 4.0 04:36:38 53° W 04:36:56 53° WSW 04:41:58 10° S
Cosmos 1726 Rocket 4.3 04:38:49 38° NNW 04:38:49 38° NNW 04:41:46 10° N
Cosmos 2058 Rocket 2.9 04:35:01 25° SSW 04:37:34 80° W 04:41:57 10° N
Okean O Rocket 3.1 04:33:54 10° NNE 04:38:04 38° E 04:42:11 10° SSE
STARLINK-76 3.7 04:38:17 57° NNW 04:38:21 57° N 04:42:20 10° ENE
Cosmos 2341 Rocket 4.3 04:34:06 10° NNW 04:39:55 42° W 04:45:40 10° SSW
STARLINK 3.7 04:39:52 56° NNW 04:40:01 57° N 04:43:59 10° ENE
SJ-12 3.9 04:36:24 10° NNE 04:40:30 80° ESE 04:44:35 10° S
Cosmos 1908 4.0 04:42:07 39° NNW 04:42:07 39° NNW 04:44:45 10° N
STARLINK-32 3.7 04:41:28 56° NNW 04:41:40 57° N 04:45:39 10° ENE
CENTAUR R/B 3.7 04:41:52 32° W 04:42:55 33° WSW 04:50:23 10° S
STARLINK-40 3.7 04:43:04 55° NNW 04:43:20 56° N 04:47:19 10° ENE
CZ-4B R/B 3.6 04:39:17 10° N 04:42:17 39° NNW 04:42:17 39° NNW
Cosmos 2058 4.4 04:39:34 10° N 04:43:33 38° ENE 04:47:29 10° SE
STARLINK-48 3.6 04:43:58 57° NNW 04:44:21 61° N 04:48:13 10° E
STARLINK-44 3.7 04:44:38 54° NNW 04:44:59 56° N 04:48:58 10° ENE
Cosmos 1821 Rocket 4.5 04:39:35 10° N 04:45:41 60° ENE 04:51:42 10° SSE
STARLINK 1040 3.8 04:46:49 39° NE 04:46:49 39° NE 04:48:50 10° ENE
Cosmos 864 Rocket 4.4 04:40:28 10° NNW 04:46:38 64° W 04:52:49 10° S
STARLINK-37 3.7 04:46:20 52° NNW 04:46:46 56° N 04:50:44 10° ENE
STARLINK-36 3.7 04:47:50 51° NW 04:48:19 56° N 04:52:17 10° ENE
COSMO-SKYMED 1 2.6 04:44:09 10° S 04:48:23 52° W 04:48:47 50° WNW
Meteor 2-12 Rocket 4.4 04:42:20 10° N 04:48:30 89° E 04:54:38 10° S
USA 215 3.2 04:42:31 10° ESE 04:49:05 89° NE 04:52:59 27° WNW
STARLINK-68 3.8 04:49:37 49° NW 04:50:12 55° N 04:54:10 10° ENE
STARLINK-26 3.5 04:51:04 52° N 04:51:19 53° N 04:54:44 10° E
STARLINK-63 3.8 04:51:05 48° NW 04:51:43 55° N 04:55:42 10° ENE
NOSS 5 (C) 4.3 04:51:24 69° NW 04:51:47 87° SW 04:55:47 10° SE
NOSS 3-4 (A) 3.5 04:50:16 34° WSW 04:52:53 58° NW 04:59:21 10° NE
NOSS 3-4 (C) 3.5 04:50:20 34° WSW 04:52:58 58° NW 04:59:27 10° NE
STARLINK-35 3.8 04:52:34 47° NW 04:53:16 55° N 04:57:15 10° ENE
Cosmos 2056 Rocket 3.9 04:52:10 37° WNW 04:53:20 42° WSW 04:58:22 10° S
ALOS 2.1 04:48:59 10° NNE 04:53:41 83° WNW 04:58:21 10° SSW
STARLINK-75 3.6 04:53:42 48° NNW 04:54:11 52° N 04:57:50 10° ENE
STARLINK-51 3.8 04:54:10 46° NW 04:54:56 55° N 04:58:55 10° ENE
STARLINK 1067 4.5 04:52:45 23° SSW 04:54:57 47° SSE 04:58:57 10° ENE
Elektron 3 4.4 04:55:20 46° W 04:56:06 56° NW 04:59:08 10° NE
STARLINK-30 3.8 04:55:47 45° NW 04:56:38 55° N 05:00:36 10° ENE
BREEZE M DEB (TANK) 4.2 04:47:33 25° WNW 04:56:54 75° SSW 05:01:32 10° ESE
STARLINK-41 3.6 04:57:13 46° NW 04:57:49 52° N 05:01:28 10° ENE
STARLINK-72 3.8 04:57:21 43° NW 04:58:16 55° N 05:02:15 10° ENE
STARLINK 1058 4.3 04:57:30 22° SW 04:59:53 50° SSE 05:03:55 10° ENE
STARLINK-50 3.8 04:58:56 42° NW 04:59:55 55° N 05:03:54 10° ENE
Cosmos 2218 Rocket 4.2 04:53:51 10° NNW 04:59:56 48° W 05:05:56 10° SSW
STARLINK 3.7 04:59:58 44° NW 05:00:40 52° N 05:04:17 10° ENE
Helios 1A Rocket 4.1 04:57:19 10° NNE 05:01:20 46° E 05:05:19 10° S
Meteor PRIRODA 4.5 04:57:59 10° N 05:00:36 33° NW 05:00:36 33° NW
Cosmos 158 Rocket 3.9 04:59:04 26° SW 05:01:39 52° WNW 05:06:34 10° NNE
STARLINK-59 3.8 05:00:37 41° NW 05:01:41 54° N 05:05:39 10° ENE
STARLINK 1031 3.3 05:01:21 48° W 05:02:17 72° NNW 05:06:08 10° ENE
STARLINK 1014 2.9 05:02:43 56° NNW 05:02:51 57° NNW 05:05:54 10° ENE
Cosmos 371 Rocket 4.1 04:58:09 10° NNW 05:02:53 50° ENE 05:07:35 10° SE
PAYLOAD B 4.3 04:57:26 10° NNE 05:03:05 83° ESE 05:08:42 10° SSW
STARLINK-56 3.8 05:02:07 39° NW 05:03:15 54° N 05:07:13 10° ENE
Cosmos 2278 Rocket 3.6 04:58:09 10° NNW 05:03:22 36° NE 05:08:33 10° ESE
STARLINK 1044 3.4 05:02:20 45° W 05:03:23 71° NNW 05:07:18 10° ENE
USA 116 3.7 04:59:21 10° S 05:03:33 60° WSW 05:05:47 23° NNW
STARLINK 1043 4.2 05:02:15 21° SW 05:04:49 53° SSE 05:08:52 10° ENE
Starlink (trailer) 3.8 05:03:43 38° NW 05:04:55 54° N 05:08:53 10° ENE
STARLINK 1024 3.4 05:04:56 43° W 05:06:01 70° NNW 05:09:52 10° ENE
Cosmos 2263 Rocket 4.0 05:09:01 14° SW 05:09:01 14° SW 05:10:16 10° SW
STARLINK-38 3.8 05:05:19 37° WNW 05:06:35 54° N 05:10:33 10° ENE
Cosmos 1484 Rocket 3.5 05:03:38 10° N 05:06:17 31° NW 05:06:17 31° NW
STARLINK-58 3.8 05:06:09 37° NW 05:07:21 54° N 05:11:14 10° ENE
STARLINK-65 3.8 05:06:54 36° WNW 05:08:14 54° N 05:12:13 10° ENE
STARLINK-62 3.8 05:07:49 36° NW 05:09:06 54° N 05:12:58 10° E
STARLINK 1065 4.1 05:07:03 19° SW 05:09:48 57° SSE 05:13:53 10° ENE
STARLINK-53 3.9 05:08:35 34° WNW 05:10:00 54° N 05:13:58 10° E
Alouette 2 Rocket 3.6 05:07:19 10° S 05:11:11 63° ESE 05:14:44 10° NNE
Cosmos 2322 Rocket 2.3 05:07:42 16° SW 05:12:05 52° NW 05:17:41 10° NNE
STARLINK 1032 3.4 05:12:08 36° W 05:13:33 66° NNW 05:17:23 10° ENE
Cosmos 1934 Rocket 4.5 05:08:19 10° N 05:14:25 62° ENE 05:20:33 10° SSE
STARLINK 1063 4.0 05:11:49 18° SW 05:14:46 60° SSE 05:18:52 10° ENE
CZ-2C R/B 3.7 05:10:59 10° N 05:14:25 22° NW 05:14:25 22° NW
SOZ 3.8 05:16:06 44° WNW 05:16:45 77° NNE 05:18:55 10° E
STARLINK 1011 3.5 05:15:46 33° W 05:17:20 65° NNW 05:21:10 10° ENE
Cosmos 1844 Rocket 2.7 05:12:46 15° NW 05:17:26 59° WSW 05:22:58 10° S
RESURS DK-1 2.6 05:17:04 22° WSW 05:19:25 47° NW 05:23:27 10° NNE
STARLINK 1064 4.0 05:16:35 17° SW 05:19:43 64° SSE 05:23:49 10° ENE
STARLINK 1036 3.5 05:19:24 30° W 05:21:07 63° NNW 05:24:57 10° ENE
COSMOS 2455 4.0 05:19:02 21° WNW 05:21:14 26° NNW 05:26:13 10° NNE
CZ-4B DEB 4.2 05:16:38 10° N 05:22:09 65° WNW 05:27:35 10° SSW
Cosmos 2239 Rocket 4.5 05:16:43 10° N 05:23:01 87° W 05:29:14 10° S
STARLINK-42 3.7 05:22:16 28° WNW 05:23:56 52° N 05:27:31 10° E
STARLINK 1041 3.9 05:21:23 15° SW 05:24:42 68° SSE 05:28:50 10° ENE
STARLINK-34 3.8 05:24:04 26° WNW 05:26:05 54° N 05:29:56 10° E
Cosmos 1437 3.1 05:26:43 30° WNW 05:27:26 35° W 05:30:15 10° SSW
ATLAS 2AS CENTAUR R/B 3.5 05:22:43 18° W 05:28:23 44° NNW 05:35:52 10° NE
Cosmos 1943 Rocket 4.5 05:25:50 10° N 05:28:28 13° NNE 05:31:05 10° NE
STARLINK 1047 3.5 05:26:41 25° W 05:28:44 61° N 05:32:33 10° ENE
STARLINK 1038 3.8 05:26:09 14° SW 05:29:40 72° SSE 05:33:48 10° ENE
STARLINK 1037 3.6 05:29:18 24° W 05:31:28 60° N 05:35:18 10° ENE
Meteor 2-1 Rocket 4.5 05:25:58 10° S 05:31:32 72° E 05:37:02 10° NNE
Cosmos 1867 3.5 05:29:22 13° NW 05:34:15 77° SW 05:39:41 10° SSE
Cosmos 1110 Rocket 4.3 05:29:06 10° NNW 05:34:25 72° ENE 05:39:44 10° SSE
FENGYUN 3A 3.9 05:29:23 10° N 05:34:32 45° WNW 05:39:40 10° SW
STARLINK 1046 3.7 05:30:57 13° WSW 05:34:39 76° SSE 05:38:48 10° ENE
STARLINK 1059 3.6 05:32:59 22° W 05:35:19 59° N 05:39:09 10° ENE
Cosmos 1452 Rocket 3.8 05:30:17 10° NNW 05:35:19 47° WSW 05:40:20 10° S
STARLINK 1029 3.3 05:34:23 25° WNW 05:35:56 49° N 05:39:00 10° ENE
STARLINK-80 3.4 05:36:34 20° WNW 05:39:02 70° SSW 05:42:49 10° ESE
STARLINK 1057 3.6 05:36:41 20° W 05:39:10 58° N 05:43:00 10° ENE
Cosmos 2333 Rocket 2.9 05:33:48 10° SSW 05:39:28 61° ESE 05:45:09 10° NE
STARLINK 1039 3.7 05:35:44 12° WSW 05:39:38 80° SSE 05:43:47 10° ENE
STARLINK-33 3.5 05:38:04 20° WNW 05:40:18 55° N 05:43:49 10° E
Cosmos 1812 Rocket 3.5 05:36:08 10° SSW 05:40:28 61° WNW 05:44:54 10° N
STARLINK-66 3.5 05:39:40 19° WNW 05:41:59 56° N 05:45:30 10° E
STARLINK 1052 3.6 05:40:24 18° W 05:43:04 57° N 05:46:53 10° ENE
CZ-2C R/B 4.5 05:38:48 10° ESE 05:43:24 30° ENE 05:48:07 10° N
STARLINK-61 3.7 05:40:37 18° WNW 05:43:26 65° NNE 05:47:22 10° E
STARLINK-55 3.5 05:41:16 19° WNW 05:43:39 57° N 05:47:10 10° E
STARLINK 1045 3.6 05:40:31 10° WSW 05:44:35 83° SSE 05:48:46 10° ENE
Cosmos 304 Rocket 4.5 05:39:57 10° NNW 05:44:44 56° ENE 05:49:28 10° SE
STARLINK-28 3.5 05:42:59 18° WNW 05:45:27 59° NNE 05:48:58 10° E
STARLINK 1068 3.7 05:44:06 17° W 05:46:56 56° N 05:50:45 10° ENE
STARLINK-24 3.8 05:43:58 17° WNW 05:46:57 59° N 05:50:57 10° E
SMAP 3.2 05:43:09 10° NNE 05:47:50 80° ESE 05:52:30 10° SSW
Cosmos 1340 Rocket 2.8 05:45:19 10° SSW 05:49:09 54° WNW 05:53:01 10° N
STARLINK-81 3.8 05:46:29 16° WNW 05:49:35 58° N 05:53:34 10° E
STARLINK 1050 3.6 05:45:30 10° WSW 05:49:39 89° SSE 05:53:49 10° ENE
Iridium 96 3.8 05:48:00 10° SSW 05:50:14 40° W 05:52:27 10° N
STARLINK-64 3.6 05:48:08 16° WNW 05:51:00 58° N 05:54:42 10° E
Lacrosse 5 rocket 1.6 05:47:31 14° WNW 05:51:17 64° SW 05:55:35 10° SE
STARLINK-54 3.8 05:48:11 15° WNW 05:51:22 60° N 05:55:22 10° E
Cosmos 1300 3.4 05:49:17 10° SW 05:52:42 31° WNW 05:56:08 10° N
STARLINK-77 3.8 05:49:39 15° WNW 05:52:53 59° N 05:56:52 10° E
STARLINK 1035 3.6 05:50:11 15° W 05:52:59 52° N 05:56:35 10° ENE
STARLINK-25 3.8 05:51:14 14° WNW 05:54:32 59° N 05:58:33 10° E
STARLINK 1055 3.6 05:50:29 10° WSW 05:54:39 87° NNW 05:58:48 10° ENE
STARLINK 1060 3.7 05:51:32 14° W 05:54:41 55° N 05:58:30 10° ENE
Cosmos 2360 Rocket 2.5 05:50:04 10° SW 05:55:31 47° NW 06:01:00 10° NNE
STARLINK-71 3.8 05:53:02 14° WNW 05:56:25 61° N 06:00:26 10° E
SL-16 R/B 3.2 05:52:28 10° W 05:57:10 26° NW 06:01:55 10° NNE
Cosmos 2219 Rocket 2.4 05:51:33 10° SSW 05:57:13 78° ESE 06:02:57 10° NNE
STARLINK-79 3.8 05:54:23 14° WNW 05:57:50 60° N 06:01:50 10° E
STARLINK 1027 3.6 05:54:58 14° WNW 05:57:59 52° N 06:01:34 10° ENE
STARLINK 1030 3.7 05:55:16 13° W 05:58:35 54° N 06:02:24 10° ENE
STARLINK 1028 3.3 05:56:40 15° WNW 05:58:54 43° N 06:01:44 10° ENE
STARLINK 1021 3.3 05:56:53 14° WNW 05:59:08 43° N 06:01:57 10° ENE
STARLINK 1019 3.3 05:57:07 14° WNW 05:59:21 43° N 06:02:10 10° ENE
STARLINK-78 3.8 05:56:01 13° WNW 05:59:32 61° N 06:03:33 10° E
STARLINK 1022 3.6 05:55:26 10° WSW 05:59:35 84° NNW 06:03:45 10° ENE
STARLINK 1012 3.3 05:57:20 14° WNW 05:59:35 43° N 06:02:25 10° ENE
STARLINK 1010 3.3 05:57:32 14° WNW 05:59:49 43° N 06:02:38 10° ENE
H-2A R/B 2.8 05:56:06 10° N 05:59:57 60° WNW 06:03:45 10° SSW
STARLINK 1026 3.3 05:57:45 14° WNW 06:00:02 43° N 06:02:51 10° ENE
STARLINK 1013 3.3 05:57:59 14° WNW 06:00:16 43° N 06:03:06 10° ENE
STARLINK 1009 3.3 05:58:11 14° WNW 06:00:29 43° N 06:03:19 10° ENE
STARLINK 1015 3.3 05:58:24 14° WNW 06:00:42 43° N 06:03:32 10° ENE
STARLINK 1016 3.3 05:58:38 14° WNW 06:00:57 43° N 06:03:46 10° ENE
STARLINK 1008 3.3 05:58:50 14° WNW 06:01:10 43° N 06:03:59 10° ENE
STARLINK-57 3.8 05:57:43 13° WNW 06:01:19 62° NNE 06:05:19 10° E
STARLINK 1025 3.3 05:59:16 14° WNW 06:01:37 43° N 06:04:26 10° ENE
STARLINK 1017 3.3 05:59:28 13° WNW 06:01:50 43° N 06:04:39 10° ENE
STARLINK 1023 3.3 05:59:42 13° WNW 06:02:04 43° N 06:04:54 10° ENE
STARLINK 1007 3.3 05:59:54 13° WNW 06:02:17 43° N 06:05:06 10° ENE
STARLINK 1020 3.7 05:59:02 12° W 06:02:31 54° N 06:06:21 10° ENE
STARLINK 1048 3.3 06:00:09 13° WNW 06:02:32 43° N 06:05:22 10° ENE
Cosmos 1076 Rocket 4.3 05:58:49 10° NNW 06:02:41 31° W 06:06:32 10° SSW
STARLINK 1049 3.3 06:00:20 13° WNW 06:02:44 43° N 06:05:34 10° ENE
STARLINK-49 3.8 05:59:11 12° WNW 06:02:51 62° N 06:06:51 10° E
STARLINK 1051 3.3 06:00:34 13° WNW 06:02:58 43° N 06:05:47 10° ENE
NOAA 6 4.5 05:58:20 10° N 06:03:11 41° WNW 06:08:00 10° SW
Lacrosse 5 2.3 05:58:20 10° W 06:03:12 46° NNW 06:08:08 10° ENE
Cosmos 1461 4.0 05:59:42 10° SSW 06:03:29 47° ESE 06:07:24 10° NE
Cosmos 1980 Rocket 4.0 06:01:09 10° NW 06:03:45 13° NNW 06:06:21 10° N
Cosmos 2333 4.2 05:58:07 10° SW 06:03:53 71° WNW 06:09:41 10° NNE
Cosmos 1455 2.4 06:00:18 10° S 06:04:10 80° E 06:08:03 10° NNE
STARLINK-27 3.8 06:00:46 12° WNW 06:04:30 62° NNE 06:08:30 10° E
STARLINK 1042 3.6 06:00:22 10° WSW 06:04:32 81° NNW 06:08:42 10° ENE
Cosmos 2322 3.7 05:59:20 10° SW 06:04:58 63° WNW 06:10:36 10° NNE
GENESIS II 4.3 06:01:10 10° NW 06:05:16 70° SW 06:09:15 10° SSE
CORIOLIS 4.3 06:00:36 10° NNE 06:06:00 86° ESE 06:11:23 10° SSW
STARLINK-74 3.8 06:02:21 11° WNW 06:06:09 63° NNE 06:10:09 10° E
CZ-4B R/B 3.5 06:01:08 10° N 06:06:22 45° WNW 06:11:29 10° SW
STARLINK 1034 3.8 06:02:47 11° W 06:06:27 54° N 06:10:16 10° ENE
STARLINK-39 3.8 06:03:57 11° WNW 06:07:49 63° NNE 06:11:49 10° E
STARLINK 3.7 06:05:33 10° WNW 06:09:30 64° NNE 06:13:30 10° E
STARLINK 1056 3.6 06:05:27 10° WSW 06:09:36 78° NNW 06:13:46 10° ENE
ADEOS Rocket 3.4 06:06:02 10° SSW 06:11:10 38° W 06:16:42 10° NNW
STARLINK-69 3.7 06:07:20 10° WNW 06:11:21 66° NNE 06:15:22 10° E
STARLINK-21 3.7 06:08:49 10° WNW 06:12:51 65° NNE 06:16:52 10° E
Feng Yun 1-1 Rocket 4.4 06:07:08 10° NNE 06:13:05 86° WNW 06:18:54 10° SSW
Cosmos 2151 3.1 06:09:00 10° NNW 06:13:14 57° W 06:17:27 10° S
Okean O Rocket 2.5 06:10:29 10° N 06:14:19 28° WNW 06:18:05 10° WSW
Cosmos 1331 Rocket 4.1 06:09:07 10° NNW 06:14:22 64° WSW 06:19:35 10° S
STARLINK 1033 3.8 06:10:34 10° W 06:14:23 53° N 06:18:12 10° ENE
STARLINK 1054 3.6 06:10:22 10° WSW 06:14:31 75° NNW 06:18:41 10° ENE
STARLINK-45 3.7 06:10:40 10° WNW 06:14:42 68° NNE 06:18:43 10° E
Okean 3 Rocket 3.8 06:11:44 10° NNW 06:16:11 54° W 06:20:36 10° S
STARLINK-70 3.7 06:12:14 10° WNW 06:16:16 68° NNE 06:20:17 10° E
STARLINK-76 3.7 06:13:47 10° WNW 06:17:48 68° NNE 06:21:50 10° E
STARLINK 3.7 06:15:26 10° WNW 06:19:27 68° NNE 06:23:29 10° E
STARLINK 1062 3.6 06:15:23 10° WSW 06:19:31 73° NNW 06:23:41 10° ENE
Cosmos 2369 Rocket 4.2 06:15:47 10° N 06:19:57 20° NE 06:24:06 10° E
Cosmos 2058 4.1 06:16:53 10° NW 06:20:15 23° W 06:23:36 10° SW
CZ-2C R/B 3.8 06:16:03 10° S 06:20:31 60° WSW 06:24:58 10° NNW
STARLINK-32 3.7 06:17:05 10° WNW 06:21:07 69° NNE 06:25:08 10° E
Cosmos 1302 Rocket 4.1 06:16:50 10° NNW 06:22:05 86° ENE 06:27:17 10° SSE
